Voltar ao catálogo

MARECS B2

AtivoComunicaçõesMEO
NORAD 15386·PAYLOAD·🇪🇺 EU

Lançado Nov 10, 1984 de Guiana Space Centre

Loading…

Próximas Passagens (próximas 24 horas)

TLE

AtualizadoSource: Space-Track

Época: Sep 14, 2026, 00:02 UTC

1 15386U 84114B   26257.00190309 -.00000250  00000-0  00000-0 0  9993
2 15386  13.3868 332.3483 0109930  57.0908 310.4776  0.95929924113531

Acompanhe MARECS B2 em tempo real com AllMySat

Download on the App Store